Location: Helsinki
(60.1699°N, 24.9384°E)
Time: 11:43:55
(UTC+02:00)

Transit 2A Rocket - Pass Details

Date: 25 September 2023
Orbit: 593 x 903 km, 66.7° (Epoch: 06 December)

Event Time Altitude Azimuth Distance (km) Brightness Sun altitude
Rises 00:48:37 0° 309° (NW) 3,001 8.7 -30.3°
Reaches altitude 10° 00:51:18 10° 296° (WNW) 2,039 7.5 -30.3°
Enters shadow 00:52:18 15° 287° (WNW) 1,734 7.0 -30.3°
Maximum altitude 00:54:58 24° 242° (WSW) 1,282 - -30.4°
Drops below altitude 10° 00:58:28 10° 188° (S) 1,945 - -30.4°
Sets 01:00:59 0° 175° (S) 2,829 - -30.4°
